Preview of NWS' New Version of Forecast
This preview is not operational and should not be used for support decisions.

Regional Weather Roundup (RWR)

Issued by Gray - Portland, ME (GYX)

                            
154 
ASUS41 KGYX 180705
RWRGYX
WEATHER ROUNDUP FOR MAINE AND NEW HAMPSHIRE
NATIONAL WEATHER SERVICE GRAY ME
200 AM EST SUN FEB 18 2018

MEZ002-005-006-010-012-015-018-020-021-024-026-027-029-180800-
MAINE
  
CITY           SKY/WX    TMP DP  RH WIND       PRES   REMARKS
PORTLAND       LGT SNOW  32  32 100 SE3       30.00F VSB 1            
SANFORD        LGT SNOW  30  29  96 N3        29.99F VSB 1            
WISCASSET      LGT SNOW  33  33 100 CALM      30.04F FOG              
ROCKLAND       LGT SNOW  33  32  96 S10       30.04F FOG              
FRYEBURG       LGT SNOW  25  25 100 CALM      29.99F VSB 3/4          
LEWISTONAUBURN LGT SNOW  27  26  96 CALM      30.00F VSB 3/4          
AUGUSTA        LGT SNOW  29  28  96 CALM      30.01F VSB 3/4          
WATERVILLE     LGT SNOW  26  23  88 CALM      29.96F FOG              
BANGOR         LGT SNOW  30  29  96 S7        30.04F FOG              
GREENVILLE       N/A     18  17  96 SE8       29.93F                  
MILLINOCKET    SNOW      20  18  92 CALM      30.05F VSB 1/2          
HOULTON        LGT SNOW  22  15  75 VRB3      30.04F                  
PRESQUE ISLE   CLOUDY    19  10  68 SE12      30.04F WCI   7          
FRENCHVILLE    MOCLDY    15   4  61 SE8       29.97F                  
CARIBOU        CLOUDY    19   7  59 S7        30.01F                  
$$

NHZ002-005-008-009-011-012-014-180800-
NEW HAMPSHIRE
  
CITY           SKY/WX    TMP DP  RH WIND       PRES   REMARKS
PORTSMOUTH     LGT SNOW  32  32  98 CALM      29.97F VSB 3/4          
ROCHESTER      LGT SNOW  30  29  96 CALM      29.97F VSB 1            
NASHUA         LGT SNOW  29  29 100 CALM      29.97F FOG              
MANCHESTER     LGT SNOW  30  28  92 N3        29.96F VSB 3/4          
CONCORD        LGT SNOW  28  26  92 NE3       29.97F FOG              
LACONIA        LGT SNOW  26  24  92 N5        29.97F VSB 1            
PLYMOUTH       LGT SNOW  26  25  96 CALM      29.97F                  
BERLIN         LGT SNOW  25  22  88 CALM      29.93F FOG              
WHITEFIELD     LGT SNOW  26  24  92 CALM      29.93F VSB 1            
JAFFREY        LGT SNOW  29  28  96 CALM      29.91F VSB 3/4          
KEENE          LGT SNOW  28  26  92 CALM      29.95F FOG              
LEBANON        LGT SNOW  28  26  92 NE6       29.95F FOG              
MT WASHINGTON  SNOW       9   9 100 SW37G47     N/A  VSB 0   WCI -16  
$$

VTZ005-007-008-180800-
VERMONT
  
CITY           SKY/WX    TMP DP  RH WIND       PRES   REMARKS
ST JOHNSBURY     N/A     25  25 100 MISG      29.94F                  
MONTPELIER     LGT SNOW  25  25 100 CALM      29.94F FOG              
BURLINGTON     CLOUDY    31  27  85 S6        29.94F                  
$$

MAZ007-012-024-CTZ003-RIZ002-NYZ038-NYZ072-180800-
SOUTHERN NEW ENGLAND AND NY
  
CITY           SKY/WX    TMP DP  RH WIND       PRES   REMARKS
BOSTON         LGT SNOW  32  32 100 NE6       29.95F FOG              
WORCESTER      LGT SNOW  28  26  92 NE5       29.90F VSB 1            
NANTUCKET      RAIN      41  41 100 E8        29.89F FOG              
PROVIDENCE     LGT SNOW  33  33 100 N6        29.95F VSB 1            
HARTFORD       LGT SNOW  29  28  96 N5        29.95F VSB 1            
ALBANY         LGT SNOW  30  27  88 VRB3      29.95F FOG              
NEW YORK CITY  CLOUDY    34  33  96 CALM      29.96S FOG              
$$

ANZ081-ANZ082-ANZ150-NHZ014-MEZ023>029-180800-
COASTAL MARINE OBSERVATIONS
  
STATION/POSITION TIME  TEMP    WIND        PRES    WAVE
                       AIR SEA DIR/SP/G            HT/PER
                 (UTC) (F)     (DEG/KT/KT) (MB)    (FT/S)
MOUNT DESERT ROC 0700   33     120/ 25/ 28 1017.9F
MATINICUS ROCK   0600   33     150/ 22/ 24 1018.2F
ISLE OF SHOALS   0600   33     150/ 13/ 14 1016.6F
JEFFREYS LEDGE   0636      41                N/A     5/ 6
GEORGES BANK BUO 0550   29 42              1029.6   11/10
$$

.............KEY..............
   WCI - WIND CHILL
   TC  - TEMPERATURE IN CELSIUS
   VSB - VISIBILITY IN MILES
   HX  - HEAT INDEX
   FAIR- INDICATES FEW OR NO CLOUDS BELOW 12,000 FT, WITH NO 
         SIGNIFICANT WEATHER AND/OR OBSTRUCTIONS TO VISIBILITY.